This is the latest recevied weather packets stored in our database for station/object VK6DUG. If no packets are shown the sender has not sent any weather packets the latest 10 day(s).
| Time | Temp. | Humidity | Pressure | Rain* | Wind** | Luminosity | Snow |
|---|---|---|---|---|---|---|---|
| 1778080234 | 12.78° C | 74% | 1033.2 hPa | 0 mm | - | 0 W/m² | - |
| 1778079629 | 12.78° C | 74% | 1033.3 hPa | 0 mm | - | 0 W/m² | - |
| 1778079025 | 13.33° C | 75% | 1033.2 hPa | 0 mm | - | 0 W/m² | - |
| 1778078419 | 12.78° C | 76% | 1033.4 hPa | 0 mm | - | 0 W/m² | - |
| 1778077833 | 12.78° C | 75% | 1033.2 hPa | 0 mm | - | 0 W/m² | - |
| 1778077229 | 13.33° C | 74% | 1033.3 hPa | 0 mm | - | 0 W/m² | - |
| 1778076624 | 13.33° C | 74% | 1033.3 hPa | 0 mm | - | 0 W/m² | - |
| 1778076019 | 13.33° C | 78% | 1033.2 hPa | 0 mm | - | 0 W/m² | - |
| 1778075435 | 12.22° C | 81% | 1033.3 hPa | 0 mm | - | 0 W/m² | - |
| 1778074832 | 12.22° C | 81% | 1033.2 hPa | 0 mm | - | 0 W/m² | - |
| 1778074228 | 12.22° C | 81% | 1033.1 hPa | 0 mm | - | 0 W/m² | - |
| 1778073624 | 12.22° C | 81% | 1033.1 hPa | 0 mm | - | 0 W/m² | - |
| 1778073020 | 12.78° C | 81% | 1033.1 hPa | 0 mm | - | 0 W/m² | - |
| 1778072418 | 12.78° C | 80% | 1032.8 hPa | 0 mm | - | 0 W/m² | - |
| 1778071832 | 12.78° C | 80% | 1032.8 hPa | 0 mm | - | 0 W/m² | - |
| 1778071227 | 13.33° C | 80% | 1032.8 hPa | 0 mm | - | 0 W/m² | - |
| 1778070623 | 13.33° C | 79% | 1032.6 hPa | 0 mm | - | 0 W/m² | - |
| 1778070020 | 13.33° C | 78% | 1032.7 hPa | 0 mm | - | 0 W/m² | - |
| 1778069417 | 13.89° C | 77% | 1032.6 hPa | 0 mm | - | 0 W/m² | - |
| 1778068832 | 13.89° C | 77% | 1032.4 hPa | 0 mm | - | 0 W/m² | - |
| 1778068229 | 13.89° C | 76% | 1032.3 hPa | 0 mm | - | 0 W/m² | - |
| 1778067626 | 13.89° C | 76% | 1032.3 hPa | 0 mm | - | 0 W/m² | - |
| 1778067024 | 14.44° C | 75% | 1032.2 hPa | 0 mm | - | 0 W/m² | - |
| 1778066420 | 14.44° C | 74% | 1032.2 hPa | 0 mm | - | 0 W/m² | - |
| 1778065817 | 15° C | 73% | 1032.1 hPa | 0 mm | - | 0 W/m² | - |
* Rain latest hour (hover to see other rain measurements)
** Current wind speed in m/s (hover to see current wind gust speed)